Home   Weather   Flekkefjord   Past weeks

Flag for Norway Past Weather in Flekkefjord, Norway — Yesterday and Last 2 Weeks

Now
37 °F

Chilly.


Feels Like: 37 °F
Forecast: 45 / 47 °F
Wind: 1 mph from Northwest

Location: Ualand-Bjuland

Current Time: Dec 4, 2016 at 9:29:38 am

Latest Report: Dec 4, 2016 at 8:00 am


Visibility: N/A

Pressure: 30.29 "Hg

Humidity: 99%

Dew Point: 37 °F

Location of FlekkefjordLocation

Past Weather in Flekkefjord — Graph

°F

Flekkefjord Temperature Yesterday

Maximum temperature yesterday: 36 °F (at 5:00 pm)
Minimum temperature yesterday: 29 °F (at 11:00 am)
Average temperature yesterday: 35 °F

High & Low Weather Summary for the Past Weeks

 TemperatureHumidityPressure
High51 °F (Nov 26, 5:00 am)100% (Nov 19, 11:00 pm)30.57 "Hg (Nov 19, 11:00 pm)
Low22 °F (Nov 28, 3:00 am)53% (Dec 2, 12:00 am)29.23 "Hg (Nov 20, 9:00 pm)
Average38 °F88%29.97 "Hg
* Reported Nov 19 8:00 am — Dec 4 8:00 am, Flekkefjord, Weather by CustomWeather, © 2016

Note: Actual official high and low records may vary slightly from our data, if they occured in-between our weather recording intervals... More about our weather records

Advertising

Flekkefjord Weather History for the Previous 24 Hours

Scroll right to see more
 ConditionsComfort  
Time TempWeatherWind HumidityBarometerVisibility
8:00 am
Sun, Dec 4
37 °FChilly.1 mph99%30.29 "HgN/A
7:00 am37 °FLight rain. Low clouds.1 mph99%30.28 "Hg6 mi
6:00 am35 °FChilly.1 mph99%30.28 "HgN/A
5:00 am35 °FChilly.1 mph99%30.28 "HgN/A
4:00 am35 °FChilly.1 mph99%30.28 "HgN/A
3:00 am36 °FChilly.1 mph99%30.28 "HgN/A
2:00 am35 °FChilly.1 mph99%30.28 "HgN/A
1:00 am36 °FChilly.1 mph99%30.28 "HgN/A
12:00 am36 °FChilly.1 mph99%30.27 "HgN/A
11:00 pm
Sat, Dec 3
36 °FChilly.No wind99%30.27 "HgN/A
10:00 pm36 °FChilly.1 mph98%30.27 "HgN/A
9:00 pm36 °FChilly.No wind98%30.26 "HgN/A
7:00 pm35 °FLight rain. Low clouds.1 mph98%30.25 "Hg6 mi
6:00 pm36 °FChilly.1 mph97%30.25 "HgN/A
5:00 pm36 °FChilly.1 mph96%30.24 "HgN/A
4:00 pm36 °FChilly.1 mph94%30.25 "HgN/A
3:00 pm35 °FChilly.1 mph88%30.24 "HgN/A
2:00 pm35 °FChilly.No wind83%30.26 "HgN/A
1:00 pm33 °FOvercast.1 mph87%30.27 "Hg37 mi
12:00 pm31 °FChilly.1 mph91%30.27 "HgN/A
11:00 am29 °FChilly.1 mph93%30.29 "HgN/A
Weather by CustomWeather, © 2016

See weather overviewHow to use our weather pages